Volver al catálogo

ORBCOMM FM 5

ActivoComunicacionesLEO
NORAD 25117·PAYLOAD·🇺🇸 United States

Lanzado Dec 23, 1997 desde Cape Canaveral Space Force Station

Loading…

Próximos Pases (próximas 24 horas)

TLE

ActualizadoSource: Space-Track

Época: Sep 14, 2026, 15:05 UTC

1 25117U 97084F   26257.62884024  .00000781  00000-0  24944-3 0  9992
2 25117  45.0159 342.9620 0001475 279.8962  80.1723 14.47538816506423

Sigue ORBCOMM FM 5 en tiempo real con AllMySat

Download on the App Store